Regional Weather Roundup
Issued by NWS Kansas City/Pleasant Hill, MO

Home | Current Version | Previous Version | Graphics & Text | Print | Product List | Glossary Off
Versions: 1 2 3 4 5 6 7 8 9 10 11 12 13 14 15 16 17 18 19 20 21 22 23 24 25 26 27 28 29 30 31 32 33 34 35 36 37 38 39 40 41 42 43 44 45 46 47 48 49 50

000
ASUS43 KEAX 032310
RWREAX

WEATHER ROUNDUP FOR EASTERN KANSAS AND NORTHWEST MISSOURI
NATIONAL WEATHER SERVICE KANSAS CITY/PLEASANT HILL MO
600 PM CDT THU SEP 03 2015

KSZ040-057-103>105-MOZ028-029-037-043-040000-
...KANSAS CITY METROPOLITAN AREA...

CITY           SKY/WX    TMP DP  RH WIND       PRES   REMARKS
K.C. INTL      MOSUNNY   89  67  47 S13       29.88F HX  92
K.C. DOWNTOWN  SUNNY     91  66  43 S13G21    29.87S HX  93
LEES SUMMIT    SUNNY     88  66  48 S10       29.90S HX  90
OLATHE - IXD   SUNNY     87  68  52 S13G21    29.90S HX  90
OLATHE - OJC   SUNNY     85  68  56 S14       29.89S
LAWRENCE       SUNNY     89  65  44 S14G23    29.86F HX  91

$$

MOZ001>008-011>017-020>025-030>033-038>040-044>046-053-054-040000-
...NORTHERN AND CENTRAL MISSOURI...

CITY           SKY/WX    TMP DP  RH WIND       PRES   REMARKS
ST. JOSEPH     SUNNY     88  70  55 S13       29.85F HX  93
MOSBY          CLEAR     88  63  42 S7        29.88S
WHITEMAN AFB   MOSUNNY   91  67  45 SW13      29.89F HX  93
CLINTON        SUNNY     90  70  51 S8        29.91F HX  95
SEDALIA        SUNNY     91  65  41 SW7       29.92F HX  93
WARSAW         NOT AVBL
CHILLICOTHE      N/A     91  68  46 S12       29.89F HX  95
KIRKSVILLE     SUNNY     89  68  49 S6        29.91S HX  93

$$

MOZ041-047>049-056>058-063>065-088>090-097-040000-
...EASTERN AND SOUTHERN MISSOURI...

CITY           SKY/WX    TMP DP  RH WIND       PRES   REMARKS
ST. LOUIS INTL MOSUNNY   92  65  40 S7        29.92F HX  94
SPIRIT OF STL  MOSUNNY   90  70  51 S3        29.91F HX  95
COLUMBIA       SUNNY     88  66  48 SW7       29.93S HX  90
JEFFERSON CITY SUNNY     92  65  40 S5        29.90S HX  94
ROLLA          SUNNY     87  66  49 S7        29.94S
OSAGE BEACH    SUNNY     90  66  45 S3        29.93S HX  92
SPRINGFIELD    SUNNY     87  66  49 SW9       29.94F
JOPLIN         SUNNY     87  68  52 S8        29.93S HX  90
WEST PLAINS    MOSUNNY   86  65  49 SW5       29.98S

$$

IAZ060-094-KSZ022-034>040-054-083-096-NEZ052-066-093-040000-
...KANSAS...SOUTHEAST NEBRASKA AND IOWA...

CITY           SKY/WX    TMP DP  RH WIND       PRES   REMARKS
TOPEKA         SUNNY     91  65  41 S14       29.85S HX  93
MANHATTAN      SUNNY     94  64  37 S14       29.81F HX  95
EMPORIA        SUNNY     89  65  44 S15       29.86S HX  91
CHANUTE        SUNNY     86  69  56 S14       29.90F HX  90
WICHITA        PTSUNNY   91  62  37 S16G28    29.84S HX  91
OMAHA          MOSUNNY   92  71  50 S18G26    29.79F HX  98
LINCOLN        MOSUNNY   93  65  39 S18G28    29.78F HX  95
FALLS CITY     SUNNY     90  69  50 S12       29.83S HX  94
LAMONI         SUNNY     88  70  55 S10       29.88F HX  93
DES MOINES     MOSUNNY   89  71  55 S9        29.85S HX  95

$$



USA.gov is the U.S. government's official web portal to all federal, state and local government web resources and services.